Location: Chochol
(49.7771°N, 14.9780°E)
Time: 11:44:10
(UTC+00:00)

Spot 2 Rocket - Pass Details

Date: 09 April 2020
Orbit: 757 x 773 km, 98.6° (Epoch: 25 May)

Event Time Altitude Azimuth Distance (km) Brightness Sun altitude
Exits shadow 20:22:14 31° 198° (SSW) 1,325 4.5 -22.7°
Maximum altitude 20:24:26 54° 260° (W) 942 4.1 -22.9°
Drops below altitude 10° 20:29:27 10° 337° (NNW) 2,324 7.0 -23.4°
Sets 20:31:49 0° 342° (NNW) 3,253 7.9 -23.7°
